This demonstration page uses our WeatherBlox Daily Observations layout. Learn more.

Left ArrowRight Arrow

Hourly Observations for May 21, 2022

Temp ( °F °C ) Dew Point ( °F °C ) Humidity (%) Winds ( mph kmh ) Pressure ( in mb ) Visibility ( mi km ) Precip ( " mm )
12:53 am 00:53 Clear 66 18.9 27 -2.8 23 23 NNW 8 13 29.85 1011 10 16 0.00 0.00
1:53 am 01:53 Clear 66 18.9 27 -2.8 23 23 NNW 10 17 29.85 1011 10 16 0.00 0.00
2:53 am 02:53 Clear 66 18.9 27 -2.8 23 23 NNW 8 13 29.85 1011 10 16 0.00 0.00
3:53 am 03:53 Clear 64 17.8 28 -2.2 26 26 NNW 8 13 29.85 1011 10 16 0.00 0.00
4:53 am 04:53 Clear 63 17.2 29 -1.7 28 28 NNW 8 13 29.87 1011 10 16 0.00 0.00
5:53 am 05:53 Sunny 63 17.2 31 -0.6 30 30 NNW 7 11 29.87 1012 10 16 0.00 0.00
6:53 am 06:53 Sunny 64 17.8 33 0.6 32 32 NNW 7 11 29.89 1012 10 16 0.00 0.00
7:53 am 07:53 Sunny 67 19.4 33 0.6 28 28 N 8 13 29.90 1012 10 16 0.00 0.00
8:53 am 08:53 Sunny 70 21.1 32 0 25 25 N 14 22 29.91 1013 10 16 0.00 0.00
9:53 am 09:53 Sunny 74 23.3 31 -0.6 20 20 N 12 19 29.91 1013 10 16 0.00 0.00
10:53 am 10:53 Sunny 77 25 29 -1.7 17 17 NNW 10 17 29.90 1013 10 16 0.00 0.00
11:53 am 11:53 Sunny 80 26.7 26 -3.3 14 14 NNW 9 15 29.90 1012 10 16 0.00 0.00
12:53 pm 12:53 Sunny 82 27.8 19 -7.2 9 9 N 7 11 29.88 1012 10 16 0.00 0.00
1:53 pm 13:53 Sunny 84 28.9 20 -6.7 9 9 NNE 9 15 29.87 1012 10 16 0.00 0.00
2:53 pm 14:53 Sunny 85 29.4 21 -6.1 9 9 VRB 6 9 29.87 1011 10 16 0.00 0.00
3:53 pm 15:53 Sunny 86 30 17 -8.3 8 8 N 7 11 29.85 1011 10 16 0.00 0.00
4:53 pm 16:53 Sunny 88 31.1 21 -6.1 8 8 N 13 20 29.84 1011 10 16 0.00 0.00
5:53 pm 17:53 Sunny 87 30.6 22 -5.6 9 9 VRB 5 7 29.84 1010 10 16 0.00 0.00
6:15 pm 18:15 Mostly Sunny 86 30 21 -6.1 9 9 E 7 11 29.82 1010 10 16 0.00 0.00
6:53 pm 18:53 Sunny 86 30 22 -5.6 9 9 ESE 3 6 29.84 1010 10 16 0.00 0.00
7:53 pm 19:53 Sunny 83 28.3 26 -3.3 12 12 Calm 29.85 1011 10 16 0.00 0.00
8:53 pm 20:53 Clear 73 22.8 33 0.6 23 23 W 6 9 29.88 1012 10 16 0.00 0.00
9:53 pm 21:53 Clear 75 23.9 33 0.6 22 22 WNW 6 9 29.89 1012 10 16 0.00 0.00
10:53 pm 22:53 Clear 74 23.3 34 1.1 23 23 WNW 7 11 29.92 1013 10 16 0.00 0.00
11:53 pm 23:53 Clear 67 19.4 37 2.8 33 33 NNE 5 7 29.93 1014 10 16 0.00 0.00

Powered by AerisWeather